Hlavní strana
METAR-TAF:

METAR-TAF

Letiště :

Reschenský průsmyk, Itálie

zeměpisná šířka: 46-50N, zeměpisná délka: 010-30E, výška: 1800 m

Aktuální stav počasí

Zpráva byla vytvořena před 55 minutami, v 06:55 UTC
Severoseverovýchodní vítr 7 kt s nárazy do 19 kt
Teplota -10°C
Vlhkost vzduchu 79%
Tlak 1016 hPa
Viditelnost 10 km a více
Žádná oblačnost pod 1500 m, nevyskytují se cumulonimby.

METAR: LIVE 150655Z 02007G19KT CAVOK M10/M13 Q1016 RMK SKC VIS MIN 9999

Čas: 08:50 (07:50 UTC)


TAF: chybějící

Stav a předpovědi počasí z více než 4 000 letišť (zprávy METAR a TAF).

Červené a žluté tečky na mapě představují dostupné meteorologické stanice.

Když kurzor umístíte na tečku, zobrazí se název stanice.

Pak kliknutím zobrazíte stav a předpověď počasí.

Chcete-li změnit mapu, kliknutím na zelené tlačítko se znaménkem +mapu přiblížíte, kliknutím na zelené tlačítko se znaménkem – mapu oddálíte a kliknutím na zelené šipky přejdete na sousední mapy.


METAR-TAF: